Location: Camaret
(48.2753°N, 4.5961°W)
Time: 02:33:38
(UTC+00:00)

Meteor 2-21 - Pass Details

Date: 29 October 2020
Orbit: 933 x 967 km, 82.5° (Epoch: 01 December)

Event Time Altitude Azimuth Distance (km) Brightness Sun altitude
Rises 17:27:08 0° 350° (N) 3,652 7.4 -4.6°
Reaches altitude 10° 17:29:39 10° 351° (N) 2,697 6.8 -5.0°
Maximum altitude 17:35:50 86° 79° (E) 958 4.5 -6.0°
Drops below altitude 10° 17:41:56 10° 171° (S) 2,654 6.8 -6.9°
Sets 17:44:23 0° 171° (S) 3,590 7.5 -7.3°
